Nuiqsut, AK

2:35 PM AKDT on September 24, 2017 (GMT -0800)
Nuiqsut

Weather History for PAQT - February, 2014

Change the Weather History Date:

Wednesday, February 19, 2014

  Actual Average (PAKU) Record (PAKU)
Temperature  
Mean Temperature -36 °F -  
Max Temperature -29 °F -12 °F 27 °F (1993)
Min Temperature -44 °F -20 °F -49 °F (2014)
Degree Days  
Heating Degree Days 102    
Moisture  
Dew Point -    
Average Humidity    
Maximum Humidity    
Minimum Humidity    
Precipitation  
Precipitation 0.00 in - - ()
Sea Level Pressure  
Sea Level Pressure 30.22 in    
Wind  
Wind Speed 2 mph (SE)    
Max Wind Speed 8 mph    
Max Gust Speed -    
Visibility 2 miles    
Events Fog    
Averages and records for this station are not official NWS values.
T = Trace of Precipitation, MM = Missing Value Source: NWS Daily Summary

Daily Weather History Graph

Daily Weather History Graph

Search for Another Location

Airport or City:

Trip Planner

Search our weather history database for the weather conditions in past years. The results will help you decide how hot, cold, wet, or windy it might be!

Date:

Astronomy

Feb. 19, 2014 Rise Set
Actual Time 9:18 AM AKST 5:18 PM AKST
Civil Twilight 8:11 AM AKST 6:25 PM AKST
Nautical Twilight 6:59 AM AKST 7:37 PM AKST
Astronomical Twilight 5:48 AM AKST 8:50 PM AKST
Moon 12:02 AM AKST (2/19) 8:36 AM AKST (2/19)
Length of Visible Light 10h 14m
Length of Day
8h 00m
Waning Gibbous, 78% of the Moon is Illuminated
Feb 19
Waning Gibbous
Feb 22
Last Quarter
Feb 28
New
Mar 8
First Quarter
Mar 16
Full

Hourly Weather History & Observations

Time (AKST) Temp. Windchill Dew Point Humidity Pressure Visibility Wind Dir Wind Speed Gust Speed Precip Events Conditions
12:53 AM -31.0 °F -51.9 °F - N/A% 30.12 in 10.0 mi South 8.1 mph - N/A   Clear
1:53 AM -29.9 °F -47.1 °F - N/A% 30.13 in 8.0 mi South 5.8 mph - N/A   Clear
2:53 AM -34.1 °F -49.7 °F - N/A% 30.13 in 8.0 mi South 4.6 mph - N/A   Clear
3:53 AM -33.0 °F -48.4 °F - N/A% 30.14 in 7.0 mi SSE 4.6 mph - N/A   Clear
4:53 AM -36.0 °F -52.0 °F - N/A% 30.14 in 10.0 mi South 4.6 mph - N/A   Clear
5:53 AM -43.1 °F - - N/A% 30.14 in 7.0 mi Calm Calm - N/A   Clear
6:10 AM -42.0 °F - - N/A% 30.14 in 1.8 mi Calm Calm - N/A   Clear
6:19 AM -42.0 °F - - N/A% 30.14 in 0.2 mi Calm Calm - N/A Fog Light Freezing Fog
6:53 AM -43.1 °F - - N/A% 30.15 in 0.5 mi Calm Calm - N/A Fog Light Freezing Fog
7:53 AM -43.1 °F -57.0 °F - N/A% 30.16 in 0.8 mi NE 3.5 mph - N/A   Mist
8:01 AM -42.0 °F -55.8 °F - N/A% 30.16 in 1.2 mi NE 3.5 mph - N/A   Partly Cloudy
8:33 AM -44.0 °F - - N/A% 30.16 in 1.0 mi Calm Calm - N/A   Mist
8:51 AM -43.6 °F - - N/A% 30.16 in 1.0 mi Calm Calm - N/A   Clear
8:53 AM -44.0 °F - - N/A% 30.17 in 1.0 mi Calm Calm - N/A   Clear
9:04 AM -44.0 °F - - N/A% 30.16 in 0.5 mi Calm Calm - N/A Fog Light Freezing Fog
9:53 AM -42.0 °F - - N/A% 30.18 in 1.0 mi Calm Calm - N/A   Mist
10:02 AM -42.0 °F - - N/A% 30.18 in 1.2 mi Calm Calm - N/A   Scattered Clouds
10:10 AM -42.0 °F - - N/A% 30.18 in 1.0 mi Calm Calm - N/A   Mist
10:30 AM -41.1 °F - - N/A% 30.19 in 0.8 mi Calm Calm - N/A   Mist
10:53 AM -42.0 °F -55.8 °F - N/A% 30.19 in 0.5 mi NNE 3.5 mph - 0.00 in   Unknown
11:53 AM -38.9 °F - - N/A% 30.21 in 0.5 mi Calm Calm - 0.00 in Fog Light Freezing Fog
12:11 PM -38.0 °F - - N/A% 30.20 in 1.2 mi Calm Calm - N/A   Clear
12:20 PM -36.0 °F - - N/A% 30.21 in 1.0 mi Calm Calm - N/A   Mist
12:27 PM -36.0 °F - - N/A% 30.21 in 0.2 mi Calm Calm - N/A Fog Light Freezing Fog
12:53 PM -35.0 °F - - N/A% 30.22 in 0.2 mi Calm Calm - N/A Fog Light Freezing Fog
1:01 PM -35.0 °F - - N/A% 30.21 in 0.2 mi Calm Calm - N/A Fog Light Freezing Fog
1:53 PM -35.0 °F - - N/A% 30.22 in 0.5 mi Calm Calm - N/A Fog Light Freezing Fog
2:53 PM -36.0 °F - - N/A% 30.23 in 1.0 mi Calm Calm - N/A   Mist
3:03 PM -35.0 °F - - N/A% 30.23 in 0.2 mi Calm Calm - N/A Fog Light Freezing Fog
3:53 PM -36.0 °F - - N/A% 30.24 in 0.2 mi Calm Calm - N/A Fog Light Freezing Fog
4:53 PM -38.0 °F -51.3 °F - N/A% 30.25 in 0.8 mi NE 3.5 mph - N/A   Mist
5:15 PM -38.0 °F -54.3 °F - N/A% 30.23 in 1.2 mi NE 4.6 mph - N/A   Partly Cloudy
5:24 PM -36.9 °F -50.1 °F - N/A% 30.24 in 2.5 mi ENE 3.5 mph - N/A   Clear
5:35 PM -38.9 °F -52.3 °F - N/A% 30.24 in 1.5 mi East 3.5 mph - N/A   Clear
5:53 PM -40.0 °F - - N/A% 30.25 in 4.0 mi Calm Calm - N/A   Haze
6:03 PM -40.0 °F - - N/A% 30.25 in 1.5 mi Calm Calm - N/A   Clear
6:13 PM -40.0 °F - - N/A% 30.25 in 0.8 mi Calm Calm - N/A   Clear
6:21 PM -40.0 °F - - N/A% 30.25 in 1.5 mi Calm Calm - N/A   Clear
6:39 PM -40.0 °F - - N/A% 30.25 in 0.8 mi Calm Calm - N/A   Clear
6:53 PM -40.0 °F - - N/A% 30.26 in 0.5 mi Calm Calm - N/A Fog Light Freezing Fog
7:14 PM -40.0 °F - - N/A% 30.26 in 0.2 mi Calm Calm - N/A Fog Light Freezing Fog
7:53 PM -41.1 °F - - N/A% 30.28 in 0.5 mi Calm Calm - N/A Fog Light Freezing Fog
8:53 PM -42.0 °F - - N/A% 30.28 in 0.5 mi Calm Calm - N/A Fog Light Freezing Fog
9:30 PM -42.0 °F - - N/A% 30.28 in 0.5 mi Calm Calm - N/A Fog Light Freezing Fog
9:41 PM -43.1 °F - - N/A% 30.28 in 1.2 mi Calm Calm - N/A   Partly Cloudy
9:48 PM -43.6 °F - - N/A% 30.28 in 3.0 mi Calm Calm - N/A   Partly Cloudy
9:53 PM -42.0 °F - - N/A% 30.29 in 3.0 mi Calm Calm - N/A   Partly Cloudy
10:06 PM -40.0 °F - - N/A% 30.29 in 1.8 mi Calm Calm - N/A   Partly Cloudy
10:09 PM -38.9 °F - - N/A% 30.29 in 0.8 mi Calm Calm - N/A   Mist
10:27 PM -31.0 °F -43.3 °F - N/A% 30.29 in 1.2 mi SSW 3.5 mph - N/A   Partly Cloudy
10:39 PM -38.0 °F -54.3 °F - N/A% 30.29 in 3.0 mi SSW 4.6 mph - N/A   Clear
10:53 PM -34.1 °F -49.7 °F - N/A% 30.30 in 6.0 mi SSW 4.6 mph - N/A   Haze
11:53 PM -34.1 °F -46.8 °F - N/A% 30.31 in 10.0 mi SW 3.5 mph - N/A   Clear